weather.gov     
National Weather Service

Regional Weather Roundup
NWS Homepage
This page is being discontinued on March 12, 2014.
The same data is available at this site. Please update your bookmarks.
Thank you, and we apologize for the inconvenience.
Please send an email to SR-SRH.Webmaster@noaa.gov with any concerns.


Current Version
Previous Version:    01  02  03  04  05  06  07  08  09  10  11  12  13  14  15  16  17  18  19  20  21  22  23  24  25  26  27  28  29  30  
   31  32  33  34  35  36  37  38  39  40  41  42  43  44  45  46  47  48  49  50  51  52  53  
[Printable]
572
ASUS44 KOUN 240210
RWROK

WEATHER ROUNDUP FOR OKLAHOMA
NATIONAL WEATHER SERVICE NORMAN OK
900 PM CDT WED JUL 23 2014

NOTE: "FAIR" INDICATES FEW OR NO CLOUDS BELOW 12,000 FEET WITH NO
      SIGNIFICANT WEATHER AND/OR OBSTRUCTIONS TO VISIBILITY.

OKZ001>007-009>012-014-015-017-240300-
NORTHWEST OKLAHOMA AND THE PANHANDLE

CITY           SKY/WX    TMP DP  RH WIND       PRES   REMARKS
GAGE           CLEAR     86  70  58 E6        30.10R HX  90
ENID/WOODRING  MOCLDY    82  68  61 E7        30.07R
$$

OKZ016-021>023-033>039-044-045-240300-
SOUTHWEST OKLAHOMA

CITY           SKY/WX    TMP DP  RH WIND       PRES   REMARKS
LAWTON/REGL    MOCLDY    87  63  44 SE6       30.05R
LAWTON/FT SILL MOCLDY    86  62  44 S6        30.05R
FREDERICK      PTCLDY    90  69  50 E16G23    30.03R HX  94
CLINTON        PTCLDY    91  63  39 E7        30.10R HX  92
HOBART         PTCLDY    87  68  52 SE7       30.07R HX  90
ALTUS AFB      PTCLDY    88  73  62 E3        30.03R HX  96
$$

OKZ018>020-024>031-240300-
CENTRAL OKLAHOMA

CITY           SKY/WX    TMP DP  RH WIND       PRES   REMARKS
OKLAHOMA CITY  CLOUDY    84  76  76 SE8       30.07R HX  93
OKC/WILEY POST CLOUDY    85  77  77 NE9       30.07R HX  95
OKC/TINKER AFB CLOUDY    82  76  84 E9        30.08R
STILLWATER     MOCLDY    78  71  79 NE5       30.07R
GUTHRIE        MOCLDY    82  75  79 E6        30.07R
$$

OKZ008-013-054>072-240300-
NORTHEAST OKLAHOMA

CITY           SKY/WX    TMP DP  RH WIND       PRES   REMARKS
TULSA          MOCLDY    78  71  79 S5        30.06R
TULSA/JONES    MOCLDY    74  72  93 CALM      30.07R
PONCA CITY     PTCLDY    80  70  71 E5        30.08R
BARTLESVILLE   PTCLDY    76  74  93 CALM      30.06S
MUSKOGEE       MOCLDY    72  69  90 SE6       30.09R
$$

OKZ032-040>043-046>053-073>077-240300-
SOUTH CENTRAL/SOUTHEAST OKLAHOMA

CITY           SKY/WX    TMP DP  RH WIND       PRES   REMARKS
ARDMORE/DWNTWN CLOUDY    79  66  65 SE6       30.07R
MCALESTER      CLOUDY    72  70  93 SE5       30.09S
$$





U.S. Dept. of Commerce
NOAA National Weather Service
1325 East West Highway
Silver Spring, MD 20910
E-mail: w-nws.webmaster@noaa.gov
Page last modified: May 16, 2007
NATIONAL WEATHER SERVICE: for Safety, for Work, for Fun - FOR LIFE